Pembrey Sands, United Kingdom

11:36 AM BST on June 23, 2017 (GMT +0100)
Pembrey Sands

Weather History for EGOP - November, 2012

Change the Weather History Date:

Sunday, November 18, 2012

  Actual Average Record
Temperature  
Mean Temperature 39 °F -  
Max Temperature 50 °F - - ()
Min Temperature 28 °F - - ()
Degree Days  
Heating Degree Days 26    
Moisture  
Dew Point 36 °F    
Average Humidity 82    
Maximum Humidity 100    
Minimum Humidity 64    
Precipitation  
Precipitation 0.02 in - - ()
Sea Level Pressure  
Sea Level Pressure 29.91 in    
Wind  
Wind Speed 10 mph ()    
Max Wind Speed 30 mph    
Max Gust Speed -    
Visibility 7.5 miles    
Events      
T = Trace of Precipitation, MM = Missing Value Source: Averaged Metar Reports

Daily Weather History Graph

Daily Weather History Graph

Search for Another Location

Airport or City:

Trip Planner

Search our weather history database for the weather conditions in past years. The results will help you decide how hot, cold, wet, or windy it might be!

Date:

Astronomy

Nov. 18, 2012 Rise Set
Actual Time 7:41 AM GMT 4:22 PM GMT
Civil Twilight 7:04 AM GMT 5:00 PM GMT
Nautical Twilight 6:23 AM GMT 5:41 PM GMT
Astronomical Twilight 5:43 AM GMT 6:21 PM GMT
Moon 11:53 AM GMT (11/18) 9:34 PM GMT (11/18)
Length of Visible Light 9h 56m
Length of Day
8h 40m
Waxing Crescent, 28% of the Moon is Illuminated
Nov 18
Waxing Crescent
Nov 20
First Quarter
Nov 28
Full
Dec 6
Last Quarter
Dec 13
New

Hourly Weather History & Observations

Time (GMT) Temp. Windchill Dew Point Humidity Pressure Visibility Wind Dir Wind Speed Gust Speed Precip Events Conditions
12:50 AM 32.0 °F 27.5 °F 30.2 °F 93% 29.89 in 6.2 mi East 4.6 mph - N/A   Partly Cloudy
1:50 AM 30.2 °F 26.7 °F 30.2 °F 100% 29.92 in 6.2 mi ENE 3.5 mph - N/A   Unknown
2:50 AM 29 °F - 28 °F 93% 29.93 in 12 mi ENE 3.5 mph - -  
2:50 AM 28.4 °F 24.6 °F 28.4 °F 100% 29.92 in 6.2 mi ENE 3.5 mph - N/A   Unknown
3:50 AM 30.2 °F 25.4 °F 28.4 °F 93% 29.92 in 6.2 mi East 4.6 mph - N/A   Unknown
4:50 AM 30.2 °F 25.4 °F 30.2 °F 100% 29.92 in 6.2 mi ENE 4.6 mph - N/A   Partly Cloudy
5:50 AM 29 °F - 28 °F 92% 29.94 in 12 mi ENE 4.6 mph - -   Scattered Clouds
5:50 AM 28.4 °F 23.3 °F 28.4 °F 100% 29.92 in 6.2 mi ENE 4.6 mph - N/A   Partly Cloudy
6:50 AM 30.2 °F 25.4 °F 28.4 °F 93% 29.95 in 6.2 mi East 4.6 mph - N/A   Unknown
7:50 AM 28.4 °F 23.3 °F 26.6 °F 93% 29.95 in 6.2 mi NE 4.6 mph - N/A   Unknown
8:50 AM 32 °F - 31 °F 93% 29.97 in 12 mi East 3.5 mph - -  
8:50 AM 32.0 °F 28.7 °F 30.2 °F 93% 29.95 in 6.2 mi East 3.5 mph - N/A   Unknown
9:50 AM 39.2 °F 35.9 °F 37.4 °F 93% 29.95 in 6.2 mi NE 4.6 mph - N/A   Mostly Cloudy
10:50 AM 44.6 °F 42.2 °F 39.2 °F 81% 29.95 in 6.2 mi ESE 4.6 mph - N/A   Partly Cloudy
11:50 AM 48 °F - 40 °F 66% 29.96 in 22 mi ESE 8.1 mph - -   Partly Cloudy
11:50 AM 48.2 °F - 41.0 °F 76% 29.95 in 6.2 mi ESE 8.1 mph - N/A   Scattered Clouds
12:50 PM 46.4 °F 41.9 °F 41.0 °F 81% 29.92 in 6.2 mi SE 9.2 mph - N/A   Mostly Cloudy
1:50 PM 46.4 °F - 42.8 °F 87% 29.92 in 6.2 mi East 2.3 mph - N/A   Mostly Cloudy
2:50 PM 48 °F - 41 °F 68% 29.92 in 28 mi South 24.2 mph - -   Mostly Cloudy
2:50 PM 48.2 °F - 41.0 °F 76% 29.92 in 6.2 mi South 24.2 mph - N/A   Mostly Cloudy
3:50 PM 48.2 °F - 41.0 °F 76% 29.89 in 6.2 mi South 20.7 mph - N/A   Mostly Cloudy
4:50 PM 48.2 °F - 39.2 °F 71% 29.89 in 6.2 mi South 26.5 mph - N/A   Mostly Cloudy
5:50 PM 49 °F - 41 °F 65% 29.90 in 19 mi South 24.2 mph - -   Mostly Cloudy
5:50 PM 48.2 °F - 41.0 °F 76% 29.89 in 6.2 mi South 24.2 mph - N/A   Mostly Cloudy
6:50 PM 48.2 °F - 41.0 °F 76% 29.89 in 6.2 mi South 27.6 mph - N/A   Mostly Cloudy
7:50 PM 50.0 °F - 41.0 °F 71% 29.86 in 6.2 mi South 27.6 mph - N/A   Overcast
8:50 PM 49 °F - 41 °F 64% 29.87 in 9 mi South 28.8 mph - -   Scattered Clouds
8:50 PM 50.0 °F - 41.0 °F 71% 29.86 in 6.2 mi South 28.8 mph - N/A   Overcast
9:50 PM 50.0 °F - 41.0 °F 71% 29.83 in 6.2 mi South 28.8 mph - N/A   Overcast
10:50 PM 50.0 °F - 41.0 °F 71% 29.83 in 6.2 mi South 27.6 mph - N/A   Mostly Cloudy
11:50 PM 49 °F - 42 °F 68% 29.82 in 12 mi South 29.9 mph - -   Partly Cloudy
11:50 PM 50.0 °F - 41.0 °F 71% 29.80 in 6.2 mi South 29.9 mph - N/A   Mostly Cloudy